Regional Weather Roundup
Issued by NWS Upton, NY

Current Version | Previous Version | Graphics & Text | Print | Product List | Glossary Off
Versions: 1 2 3 4 5 6 7 8 9 10 11 12 13 14 15 16 17 18 19 20 21 22 23 24 25 26 27

000
ASUS41 KOKX 222305
RWROKX
REGIONAL WEATHER ROUNDUP
NATIONAL WEATHER SERVICE NEW YORK NY
700 PM EDT TUE APR 22 2014

NOTE: "FAIR" INDICATES FEW OR NO CLOUDS BELOW 12,000 FEET WITH NO
SIGNIFICANT WEATHER AND/OR OBSTRUCTIONS TO VISIBILITY.

NYZ071-072-176-178-NJZ106-104-230000-
NEW YORK CITY METRO AREA


CITY           SKY/WX    TMP DP  RH WIND       PRES   REMARKS
CENTRAL PARK   CLOUDY    66  50  56 W7        29.55F
LAGUARDIA APRT CLOUDY    63  49  60 NW3       29.52F
KENNEDY INTL   CLOUDY    56  48  74 SE6       29.54F
NEWARK/LIBERTY LGT RAIN  66  51  58 W13G26    29.53S
TETERBORO      LGT RAIN  66  51  58 W10       29.51F
$$

NYZ177-179-078>081-230000-
LONG ISLAND NEW YORK

CITY           SKY/WX    TMP DP  RH WIND       PRES   REMARKS
FARMINGDALE    CLOUDY    52  46  80 S7        29.55F
ISLIP          CLOUDY    53  47  79 SW10      29.53F
SHIRLEY        LGT RAIN  53  48  83 S8        29.56F
WESTHAMPTON    LGT RAIN  53  47  79 SW7       29.57F
MONTAUK POINT    N/A     52  46  80 S8        29.58F
$$

NYZ052-065-067-230000-
HUDSON VALLEY

CITY           SKY/WX    TMP DP  RH WIND       PRES   REMARKS
WHITE PLAINS   CLOUDY    59  48  67 S3        29.52F
NEWBURGH       MOCLDY    61  52  72 VRB5      29.53F
MONTGOMERY     CLOUDY    61  51  70 SW10      29.51S
POUGHKEEPSIE   CLOUDY    63  50  62 CALM      29.50F
ALBANY         LGT RAIN  59  50  72 CALM      29.50R
$$

NJZ001-105-106-008-010-013-015-019>022-104-230000-
NEW JERSEY

CITY           SKY/WX    TMP DP  RH WIND       PRES   REMARKS
NEWARK/LIBERTY LGT RAIN  66  51  58 W13G26    29.53S
TETERBORO      LGT RAIN  66  51  58 W10       29.51F
CALDWELL       LGT RAIN  62  53  72 W7        29.53F
MORRISTOWN     CLOUDY    63  52  67 W8G15     29.54F
SOMERVILLE     CLOUDY    64  52  64 VRB5      29.52F
LINDEN         CLOUDY    66  53  63 W9G18     29.55S
SUSSEX         CLOUDY    64  51  62 SW5       29.53S
ANDOVER          N/A     60  52  74 SW6       29.54S
TRENTON        CLOUDY    66  52  60 W8        29.54F
MILLVILLE      CLOUDY    64  54  69 W7        29.58F
ATLANTIC CITY  CLOUDY    67  52  58 W9        29.56F
WRIGHTSTOWN    CLOUDY    68  53  58 W12G23    29.54S
TOMS RIVER     CLOUDY    70  52  52 W6        29.55S
BELMAR         CLOUDY    68  50  52 W13G18    29.54S
$$

PAZ047>061-062-071-230000-
EASTERN PENNSYLVANIA

CITY           SKY/WX    TMP DP  RH WIND       PRES   REMARKS
PHILADELPHIA   CLOUDY    69  51  52 W14       29.56F
ALLENTOWN      CLOUDY    62  52  69 W10       29.58R
SCRANTON       PTCLDY    62  48  60 SW7       29.52F
$$

CTZ002-004>006-009-010-012-RIZ004-006-007-MAZ004-011-015-230000-
SOUTHERN NEW ENGLAND
 IN CT

CITY           SKY/WX    TMP DP  RH WIND       PRES   REMARKS
BRADLEY INTL   CLOUDY    62  48  60 S12       29.49F
HARTFORD       LGT RAIN  60  48  64 S9        29.51F
DANBURY        CLOUDY    60  49  66 SW5       29.53F
WTRBRY/OXFORD  LGT RAIN  55  48  76 S6        29.55F
BRIDGEPORT     CLOUDY    56  47  71 S10       29.53F
MERIDEN        LGT RAIN  56  50  80 S7        29.52F
NEW HAVEN      CLOUDY    55  47  74 S3        29.53F
CHESTER        LGT RAIN  57  46  67 S7        29.54F
GROTON         CLOUDY    50  47  89 SE5       29.56F
WILLIMANTIC    CLOUDY    63  43  48 S10       29.53S

 IN RI

CITY           SKY/WX    TMP DP  RH WIND       PRES   REMARKS
PROVIDENCE     CLOUDY    60  46  59 S13G24    29.54S
BLOCK ISLAND   PTCLDY    50  43  76 SW10      29.57F
WESTERLY       CLOUDY    53  46  77 SW10      29.57F

 IN MA

CITY           SKY/WX    TMP DP  RH WIND       PRES   REMARKS
BOSTON         CLOUDY    62  43  49 S16       29.49S
WORCESTER      CLOUDY    63  39  41 SW10      29.50F
WESTFIELD      CLOUDY    64  47  53 S7        29.48F
PROVINCETOWN   CLOUDY    52  46  82 MISG      29.55F
NANTUCKET      MOCLDY    49  44  83 S8        29.59F
$$

ANZ330-335-338-340-345-350-353-355-230000-
COASTAL MARINE OBSERVATIONS


STATION/POSITION TIME  SKY/WX   TEMP    WIND        PRES    VSBY  WAVE
                                AIR SEA DIR/SP/G                  HT/PER
                 (UTC)          (F)     (DEG/KT/KT) (MB)    (MI)  (FT/S)
NY HARB ENTRANCE 2300            49 47  VRB 12/ 14  1000.2
4S FIRE IS       2200               47                N/A           4/ 8
23SW MTP         2200            48 44  190/ 12/ 12 1001.0          3/ 8
HUDSON CANYON    2200            48 47  200/ 10/ 14 1002.0          5/ 8
EXECUTION ROCKS  2300            54 47  250/  2/  4   N/A
WESTERN LI SOUND 2300            54     140/  4/  4   N/A           0
CENTRAL LI SOUND 2200            50 43  200/  8/ 10   N/A           1/ 3
EASTERN LI SOUND NOT AVBL
ROBBINS REEF     2300            63     260/ 14/ 17   N/A
$$


>>>>>>>>>>>>>>>>>>>>>>>>>>>> KEY <<<<<<<<<<<<<<<<<<<<<<<<<<<
>                                                          <
>     SKY/WX - SKY CONDITION/PRESENT WEATHER               <
>     TMP    - TEMPERATURE IN FAHRENHEIT                   <
>     DP     - DEWPOINT IN FAHRENHEIT                      <
>     RH     - RELATIVE HUMIDITY IN PERCENT                <
>     WIND   - DIRECTION AND SPEED IN MPH                  <
>     PRES   - MEAN SEA LEVEL PRESSURE IN INCHES OF HG     <
>     WCI    - WIND CHILL INDEX                            <
>     VSB    - VISIBILITY IN MILES                         <
>     HX     - HEAT INDEX                                  <
>     TC     - TEMPERATURE IN CELSIUS                      <
>     VRB    - VARIABLE WIND DIRECTION                     <
>                                                          <
>>>>>>>>>>>>>>>>>>>>>>>>>>>> KEY <<<<<<<<<<<<<<<<<<<<<<<<<<<





USA.gov is the U.S. government's official web portal to all federal, state and local government web resources and services.